[ hide orbit diagram ]
For accurate long-term ephemerides, please instead use our Horizons system.This orbit viewer was implemented using two-body methods, and hence should not be used for determining accurate long-term trajectories (over several years or decades) or planetary encounter circumstances.
Orbital Elements at Epoch 2459000.5 (2020-May-31.0) TDB
Reference: JPL 20 (heliocentric ecliptic J2000)
Element | Value | Uncertainty (1-sigma) | Units |
e | .1409393298386253 | 3.7095e-08 | |
a | 3.175089910776543 | 1.9776e-08 | au |
q | 2.727594866574317 | 1.2096e-07 | au |
i | 6.249738379871432 | 4.2203e-06 | deg |
node | 88.79867749580649 | 3.5042e-05 | deg |
peri | 293.1987616435429 | 3.7944e-05 | deg |
M | 240.2378313128513 | 1.7041e-05 | deg |
tp | 2459687.963460383899 (2022-Apr-18.46346038) | 0.00010137 | TDB |
period | 2066.486006818285 5.66 | 1.9307e-05 5.286e-08 | d yr |
n | .1742087770312477 | 1.6276e-09 | deg/d |
Q | 3.622584954978769 | 2.2563e-08 | au |
|
| | Orbit Determination Parameters
Additional Information
|
[ show covariance matrix ]
Physical Parameter Table
Parameter |
Symbol |
Value |
Units |
Sigma |
Reference |
Notes |
absolute magnitude |
H |
13.9 |
|
n/a |
MPO299500 |
|
|
86070 (1999 RZ43) Discovered 1999-Sep-15 by Korlevic, K. at Visnjan |
Reference: 20040830/Numbers.arc | Last Updated: 2004-09-06 |
|
[ hide close-approach data ]
Close-Approach Data ...sorted by Date/Time (TDB)
|
Date/Time (TDB) |
Time Uncertainty (days_HH:MM) |
Body |
Nominal Distance (au) |
Minimum Distance (au) |
Maximum Distance (au) |
V-relative (km/s) |
V-infinity (km/s) |
JD (TDB) |
Time Uncertainty (minutes) |
Semi-major axis (km) |
Semi-minor axis (km) |
range-LOV angle (deg) |
N-sigma |
BP |
Orbit Ref. |
Reference |
Modified |
1912-Sep-01 03:21 |
00:03 |
Jupiter |
1.95981472426642 |
1.95981404301525 |
1.95981540551825 |
3.25834768575351 |
3.12288956612014 |
2419646.639416826 |
3.10918740290472 |
87.3520903080035 |
14.234148177248 |
78.7188404528983 |
2495549.66472997 |
T |
20 |
CATAB v2.0f-lin.ifort 2020-Nov-12 20:58:48 |
2020-Nov-12 20:58 |
1923-Jul-27 08:38 |
00:03 |
Jupiter |
1.91080843079149 |
1.91080799613729 |
1.91080886544558 |
2.71954786780535 |
2.55134891396728 |
2423627.859437972 |
2.68243261095437 |
71.3468040814571 |
11.5711247744206 |
86.0614366843023 |
2368985.222288 |
T |
20 |
CATAB v2.0f-lin.ifort 2020-Nov-12 20:58:48 |
2020-Nov-12 20:58 |
1934-Jun-23 13:15 |
00:02 |
Jupiter |
1.91398952499489 |
1.91398912061715 |
1.91398992937264 |
2.43682207993835 |
2.24789145792034 |
2427612.052327249 |
2.28669801549359 |
135.138612093914 |
11.0817695993904 |
87.087472611565 |
3293807.99403564 |
T |
20 |
CATAB v2.0f-lin.ifort 2020-Nov-12 20:58:48 |
2020-Nov-12 20:58 |
1945-May-17 01:54 |
00:02 |
Jupiter |
1.96617077117533 |
1.96617029673776 |
1.96617124561323 |
2.57333367774994 |
2.40009377644676 |
2431592.579366356 |
1.91208500687584 |
114.469084633156 |
11.9830081160445 |
89.8390768444325 |
3568973.14465806 |
T |
20 |
CATAB v2.0f-lin.ifort 2020-Nov-12 20:58:48 |
2020-Nov-12 20:58 |
2043-Apr-07 22:56 |
< 00:01 |
Jupiter |
1.94189937913301 |
1.94189903102346 |
1.94189972724255 |
3.20469157082674 |
3.06556407118831 |
2467347.455720519 |
0.866541445517716 |
47.8347392145491 |
13.2625784584851 |
87.3696666309025 |
3834915.79351497 |
T |
20 |
CATAB v2.0f-lin.ifort 2020-Nov-12 20:58:48 |
2020-Nov-12 20:58 |
2054-Mar-03 00:49 |
00:01 |
Jupiter |
1.89395215710251 |
1.89395177746003 |
1.89395253674487 |
2.714048978584 |
2.54393634140296 |
2471329.534317177 |
1.22688099246252 |
66.606811246893 |
12.8807501008579 |
84.7595054031021 |
3297482.34585721 |
T |
20 |
CATAB v2.0f-lin.ifort 2020-Nov-12 20:58:48 |
2020-Nov-12 20:58 |
2065-Jan-28 11:34 |
00:02 |
Jupiter |
1.91073852625605 |
1.91073810041833 |
1.91073895209387 |
2.47164214969741 |
2.28526216369765 |
2475313.982193666 |
1.63037808331219 |
103.691285844731 |
12.3927853555712 |
85.0888232163095 |
3301287.2132861 |
T |
20 |
CATAB v2.0f-lin.ifort 2020-Nov-12 20:58:48 |
2020-Nov-12 20:58 |
2075-Dec-24 20:44 |
00:02 |
Jupiter |
1.97836093978276 |
1.97836046486819 |
1.97836141469789 |
2.61849894681182 |
2.44954069044573 |
2479296.364192110 |
2.05290116148421 |
117.52682057198 |
13.0832184894919 |
87.765445366804 |
3706907.17048701 |
T |
20 |
CATAB v2.0f-lin.ifort 2020-Nov-12 20:58:48 |
2020-Nov-12 20:58 |
2173-Nov-16 04:52 |
00:05 |
Jupiter |
1.92016623720034 |
1.92016558948754 |
1.92016688491587 |
3.14130683606643 |
2.99759401913721 |
2515051.702493283 |
4.80697842024262 |
146.641363997837 |
12.4366996748113 |
84.6117653217907 |
2989462.8920977 |
T |
20 |
CATAB v2.0f-lin.ifort 2020-Nov-12 20:58:48 |
2020-Nov-12 20:58 |
2184-Oct-10 08:12 |
00:05 |
Jupiter |
1.87675820545494 |
1.87675782324227 |
1.87675858766751 |
2.70562125287991 |
2.53332629139577 |
2519032.841936938 |
5.07354908368208 |
65.0682198042944 |
22.0478203602585 |
84.0460595071857 |
2142154.91138499 |
T |
20 |
CATAB v2.0f-lin.ifort 2020-Nov-12 20:58:48 |
2020-Nov-12 20:58 |
2195-Sep-10 05:34 |
00:05 |
Jupiter |
1.90649907181424 |
1.90649828282485 |
1.90649986081296 |
2.51103452061293 |
2.32738718375153 |
2523019.732088370 |
5.47571699934063 |
261.160777937452 |
13.4464336164732 |
81.7889950433164 |
3281680.5039747 |
T |
20 |
CATAB v2.0f-lin.ifort 2020-Nov-12 20:58:48 |
2020-Nov-12 20:58 |
|
|